SCP
0 0 0 0 0 -0 0 -0 -0 0 0 0 -0 -0 0 0 -0 -0 -0 0 0 -0 -0 0 0 0 0 0 0 0 0 0 0 0 0 0 0 0 0 0 0 0 0
0 0 0 -0 -0 -0 -0 -0 -0 0 -0 -0 -0 -0 0 -0 -0 -0 -0 0 0 0 0 0 0 0 0 0 0 0 0 0 0 0 0 0 0 0 0 0 0 0 0
0 0 0 -0 -0 -0 -0 -0 -0 -0 -0 -0 -0 -0 0 -0 -0 -0 -0 0 0 0 0 0 0 0 0 0 0 0 0 0 0 0 0 0 0 0 0 0 0 0 0
0 0 0 0 -0 -0 -0 -0 -0 -0 -0 0 -0 -0 -0 0 -0 -0 -0 0 0 0 0 0 0 0 0 0 0 0 0 0 0 0 0 0 0 0 0 0 0 0 0
0 0 0 0 0 0 -0 -0 -0 0 0 -0 0 0 0 0 -0 -0 -0 -0 -0 -0 -0 0 0 0 0 0 0 0 0 0 0 0 0 0 0 0 0 0 0 0 0
-0 -0 0 -0 -0 -0 -0 -0 0 -0 -0 0 0 -0 -0 0 -0 -0 -0 -0 -0 -0 -0 0 0 0 0 0 0 0 0 0 0 0 0 0 0 0 0 0 0 0 0
-0 0 -0 -0 -0 -0 -0 -0 -0 -0 -0 -0 -0 -0 -0 -0 -0 -0 -0 -0 -0 -0 -0 -0 0 0 0 0 0 0 0 0 0 0 0 0 0 0 0 0 0 0 0
-0 -0 -0 -0 -0 -0 -0 -0 -0 -0 -0 -0 -0 -0 -0 -0 -0 -0 -0 -0 -0 -0 -0 -0 -0 0 0 0 0 0 0 0 0 0 0 0 0 0 0 0 0 0 0
-0 -0 -0 -0 -0 -0 -0 -0 -0 -0 -0 -0 -0 -0 -0 -0 -0 -0 -0 -0 -0 -0 -0 -0 -0 0 0 0 0 0 0 0 0 0 0 0 0 0 0 0 0 0 0
-0 -0 -0 -0 -0 -0 -0 -0 -0 -0 -0 -0 -0 -0 -0 -0 -0 -0 -0 0 0 0 0 0 0 0 0 0 0 0 0 0 0 0 0 0 0 0 0 0 0 0 0
-0 -0 -0 -0 -0 -0 0 -0 -0 -0 -0 -0 -0 -0 -0 0 0 0 0 0 0 0 0 0 0 0 0 0 0 0 0 0 0 0 0 0 0 0 0 0 0 0 0
0 0 -0 -0 -0 -0 -0 0 0 0 0 0 0 0 0 0 0 0 0 0 0 0 0 0 0 0 0 0 0 0 0 0 0 0 0 0 0 0 0 0 0 0 0
0 0 0 0 0 0 0 0 0 0 0 0 0 0 0 0 0 0 0 0 0 0 0 0 0 0 0 0 0 0 0 0 0 0 0 0 0 0 0 0 0 0 0
0 0 0 0 0 0 0 0 0 0 0 0 0 0 0 0 0 0 0 0 0 0 0 0 0 0 0 0 0 0 0 0 0 0 0 0 0 0 0 0 0 0 0
0 0 0 0 0 0 0 0 0 0 0 0 0 0 0 0 0 0 0 0 0 0 0 0 0 0 0 0 0 0 0 0 0 0 0 0 0 0 0 0 0 0 0
0 0 0 0 0 0 0 0 0 0 0 0 0 0 0 0 0 0 0 0 0 0 0 0 0 0 0 0 0 0 0 0 0 0 0 0 0 0 0 0 0 0 0
0 0 0 0 0 0 0 0 0 0 0 0 0 0 0 0 0 0 0 0 0 0 0 0 0 0 0 0 0 0 0 0 0 0 0 0 0 0 0 0 0 0 0
0 0 0 0 0 0 0 0 0 0 0 0 0 0 0 0 0 0 0 0 0 0 0 0 0 0 0 0 0 0 0 0 0 0 0 0 0 0 0 0 0 0 0
0 0 0 0 0 0 0 0 0 0 0 0 0 0 0 0 0 0 0 0 0 0 0 0 0 0 0 0 0 0 0 0 0 0 0 0 0 0 0 0 0 0 0
0 0 0 0 0 0 0 0 0 0 0 0 0 0 0 0 0 0 0 0 0 0 0 0 0 0 0 0 0 0 0 0 0 0 0 0 0 0 0 0 0 0 0
0 0 0 0 0 0 0 0 0 0 0 0 0 0 0 0 0 0 0 0 0 0 0 0 0 0 0 0 0 0 0 0 0 0 0 0 0 0 0 0 0 0 0
0 0 0 0 0 0 0 0 0 0 0 0 0 0 0 0 0 0 0 0 0 0 0 0 0 0 0 0 0 0 0 0 0 0 0 0 0 0 0 0 0 0 0
0 0 0 0 0 0 0 0 0 0 0 0 0 0 0 0 0 0 0 0 0 0 0 0 0 0 0 0 0 0 0 0 0 0 0 0 0 0 0 0 0 0 0
0 0 0 0 0 0 0 0 0 0 0 0 0 0 0 0 0 0 0 0 0 0 0 0 0 0 0 0 0 0 0 0 0 0 0 0 0 0 0 0 0 0 0
0 0 0 0 0 0 0 0 0 0 0 0 0 0 0 0 0 0 0 0 0 0 0 0 0 0 0 0 0 0 0 0 0 0 0 0 0 0 0 0 0 0 0
0 0 0 0 0 0 0 0 0 0 0 0 0 0 0 0 0 0 0 0 0 0 0 0 0 0 0 0 0 0 0 0 0 0 0 0 0 0 0 0 0 0 0
Wind_Speed_500mb
26 26 26 26 25 22 20 20 17 18 14 11 14 18 20 22 25 29 30 34 36 28 32 30 35 36 35 34 37 42 46 42 40 40 42 42 40 39 37 44 51 49 47
29 28 27 25 20 19 17 15 15 15 10 11 16 18 19 24 26 28 26 30 29 30 27 29 32 34 35 34 37 39 43 41 35 37 40 41 39 38 39 43 42 38 39
28 29 28 26 20 18 15 13 12 12 11 15 17 18 20 27 26 24 22 27 27 26 29 31 31 32 34 34 37 42 40 34 31 29 35 34 33 35 37 36 39 38 38
28 28 27 25 20 16 13 12 15 13 14 17 22 24 23 27 23 20 23 23 23 25 27 29 29 31 33 34 35 38 30 24 22 22 27 34 33 32 31 33 33 35 37
24 30 27 24 20 16 13 14 14 13 16 18 21 25 23 28 25 18 15 18 22 23 26 26 27 29 31 32 33 32 27 19 14 20 23 25 27 28 29 30 31 31 33
29 28 28 26 22 18 13 12 14 14 15 17 20 27 23 26 27 20 12 16 22 22 23 23 24 26 27 29 27 27 22 16 15 16 16 22 27 24 25 27 27 29 28
33 30 30 27 24 21 15 10 13 17 16 14 15 17 22 24 25 22 16 15 19 20 20 20 20 22 22 23 22 24 20 9 14 14 12 20 22 21 20 23 24 23 24
33 32 34 32 27 24 19 14 13 14 16 16 13 13 13 15 16 16 17 14 17 20 18 17 17 17 18 18 18 18 16 8 8 10 11 14 18 17 15 18 20 22 20
29 30 38 36 32 27 24 20 18 16 15 16 14 14 11 9 10 11 15 15 13 19 17 15 14 14 15 15 15 14 13 6 1 10 11 10 13 11 11 13 18 13 15
29 27 37 37 34 31 28 25 22 20 19 16 15 13 13 11 10 9 11 15 14 13 15 13 12 11 12 12 12 12 9 10 6 7 7 5 6 5 5 8 9 9 10
33 30 32 38 37 34 31 29 27 26 23 20 17 15 15 15 13 12 12 14 15 15 15 14 13 12 11 11 11 10 8 8 9 7 5 4 3 2 1 1 2 2 5
37 37 32 35 39 41 39 36 32 31 27 24 21 20 20 20 18 16 16 15 18 18 18 17 16 14 13 13 13 11 10 11 12 11 10 8 9 8 6 5 5 4 0
31 34 36 33 32 38 41 41 41 38 35 32 28 26 26 25 24 21 21 20 21 22 22 21 19 18 17 17 16 14 13 13 16 15 14 14 14 14 12 10 10 10 7
38 34 37 41 40 40 39 41 44 44 43 40 36 34 33 29 26 25 26 24 25 25 26 25 24 24 22 21 18 17 17 18 20 20 16 18 18 19 18 16 15 15 12
34 34 40 43 47 44 43 42 41 42 44 40 40 38 36 34 31 30 29 31 30 31 31 30 29 28 25 24 24 25 24 23 24 25 24 22 22 22 21 20 20 20 17
32 35 36 42 44 50 51 48 47 44 44 43 40 39 38 37 37 38 36 36 36 35 35 35 33 32 29 29 30 29 28 28 27 28 29 28 26 25 25 24 23 23 21
40 37 41 41 43 50 52 52 49 48 49 49 46 44 46 42 43 43 43 41 38 38 38 39 38 39 37 36 35 33 33 31 32 31 31 33 33 29 26 24 24 24 24
37 46 45 45 46 48 54 56 53 52 53 53 53 51 52 49 47 50 49 46 42 43 44 45 44 44 44 42 39 36 37 35 34 32 31 31 33 29 29 27 26 26 26
44 46 49 52 50 50 51 56 59 57 59 59 57 57 57 56 54 56 54 50 48 50 52 50 51 51 50 47 46 42 41 41 39 36 36 32 34 30 31 29 30 31 29
48 50 52 53 52 50 52 55 60 62 66 65 67 66 62 63 61 62 61 58 57 58 58 57 57 56 56 50 49 48 46 45 44 44 43 40 37 36 34 33 34 35 34
47 53 55 55 57 54 57 60 66 71 70 72 73 73 70 68 68 66 68 66 67 69 65 62 60 61 62 55 52 54 53 53 54 52 50 49 43 43 41 41 40 40 39
50 55 56 58 60 61 63 64 66 68 72 72 74 75 76 75 75 74 74 75 75 76 75 72 69 70 69 61 62 56 55 61 67 65 57 52 48 43 49 48 47 44 44
44 59 59 58 62 65 65 65 66 68 71 73 79 81 82 82 82 82 81 82 83 84 86 83 79 79 79 73 71 62 26 40 38 44 46 49 45 47 51 54 55 53 47
54 51 47 63 61 60 60 66 68 71 76 76 77 78 81 82 84 85 86 89 91 92 93 95 91 89 85 87 79 84 85 68 38 30 40 44 43 48 54 59 59 59 54
21 20 32 45 54 52 53 61 67 72 72 71 75 78 80 81 83 84 86 91 97 99 99 101 102 101 100 97 97 92 90 90 85 66 54 55 51 55 57 60 60 61 62
20 24 27 25 29 33 46 59 69 72 73 77 78 81 81 81 85 85 87 89 93 98 102 104 107 110 109 108 107 105 103 99 98 93 76 76 65 62 62 63 65 66 65
Wind_Direction_500mb
155 151 138 129 125 121 118 116 111 109 95 70 81 86 92 90 90 85 96 102 110 108 96 92 95 99 102 99 88 85 86 87 88 82 81 81 84 80 75 71 71 72 71
156 154 142 131 129 126 122 121 119 112 96 84 99 101 104 93 93 92 96 106 102 107 104 100 99 100 102 96 90 87 86 81 80 80 80 79 78 80 76 78 78 84 83
163 156 146 138 128 124 116 117 129 119 109 110 108 118 110 104 108 100 103 102 107 105 102 98 98 101 103 99 93 84 76 72 73 84 87 90 83 75 74 74 80 80 79
158 159 153 145 135 129 119 114 130 130 121 119 119 123 111 112 105 106 98 109 104 108 104 101 101 103 106 105 98 95 86 75 74 79 75 87 82 83 76 74 78 81 81
165 164 160 152 143 136 126 115 120 126 121 126 134 121 115 114 113 111 113 115 112 113 109 107 106 105 109 108 108 109 101 93 61 73 80 81 81 75 76 71 68 70 74
156 162 163 159 153 145 138 126 123 119 125 133 131 130 125 124 125 124 122 128 123 120 114 113 111 111 112 114 114 106 99 102 82 69 78 81 84 81 73 74 68 66 67
169 173 171 171 166 159 154 144 138 135 137 134 134 136 133 134 136 138 135 129 126 124 121 119 116 116 119 120 120 118 118 97 60 66 76 84 89 80 76 68 67 63 66
177 181 179 179 176 171 171 162 157 151 147 147 147 143 150 155 154 162 152 138 139 134 131 129 126 126 125 127 130 126 132 113 64 69 67 78 94 94 81 70 67 61 64
195 189 183 184 182 182 182 179 175 168 167 165 167 165 168 181 183 177 171 167 159 145 145 144 139 136 137 138 139 139 135 131 9 72 51 53 101 103 86 70 68 54 61
201 190 190 191 191 191 190 189 187 185 182 180 185 188 188 193 207 203 187 177 176 166 162 163 156 153 152 153 154 158 153 162 262 349 7 20 54 85 92 79 74 58 57
208 202 193 197 199 200 200 200 198 198 195 192 197 204 208 212 212 210 209 192 191 188 185 184 184 183 178 172 172 184 201 199 246 280 305 298 302 278 148 92 86 49 59
204 205 205 200 205 205 206 206 207 209 210 210 208 215 220 222 223 222 218 211 206 206 204 204 206 206 204 198 191 210 221 228 255 276 284 277 275 271 264 252 254 268 207
213 210 210 213 210 213 209 207 210 214 218 220 220 222 227 227 228 226 229 225 221 220 220 218 219 222 222 223 221 227 242 242 253 272 275 275 272 272 271 260 254 257 257
222 223 214 215 221 220 224 220 217 218 222 226 226 227 232 238 237 233 234 234 230 230 230 229 228 231 236 243 242 246 250 250 255 269 272 272 271 269 269 263 256 254 253
227 232 227 220 225 228 230 232 232 227 232 233 230 226 231 242 243 242 240 238 237 236 237 236 238 241 244 246 248 251 253 255 261 267 272 266 263 263 264 262 256 252 250
239 236 236 234 229 230 236 238 240 239 240 243 243 241 236 239 243 243 243 240 238 239 241 244 247 249 250 250 250 252 255 259 261 263 265 264 259 257 260 256 252 249 247
252 251 245 242 237 235 238 242 241 245 243 246 250 248 247 242 244 245 246 247 244 241 241 243 245 248 249 250 251 254 258 263 267 269 269 270 264 251 250 247 250 246 239
256 253 253 250 244 243 241 243 245 242 248 250 250 250 251 248 247 247 247 249 249 245 245 245 247 249 252 253 256 257 261 265 269 270 272 275 263 244 232 238 244 244 239
256 255 253 252 252 248 245 245 246 247 247 252 252 250 251 253 249 250 250 252 249 247 247 247 248 249 251 254 257 258 258 262 265 271 278 278 263 239 232 237 241 240 238
251 252 256 256 255 254 250 248 248 246 249 250 252 252 252 253 252 251 253 253 251 249 248 247 248 250 252 254 256 258 261 264 263 265 272 272 258 243 237 238 237 236 234
252 250 251 255 258 254 251 247 246 248 249 249 251 252 254 253 255 252 254 254 253 252 254 255 253 251 250 250 250 254 256 259 259 260 265 263 257 246 238 239 238 233 232
255 252 253 256 257 261 261 258 255 255 257 259 259 258 258 257 256 256 255 256 255 255 254 253 252 252 252 247 246 250 257 262 258 261 259 253 251 246 238 236 237 234 232
253 248 251 260 263 261 263 262 260 256 257 257 256 257 258 258 258 258 259 259 258 256 256 257 255 252 253 251 242 238 235 246 265 267 255 251 247 244 241 237 238 236 233
265 263 256 254 258 261 263 261 262 264 264 267 268 268 266 264 262 261 261 260 259 258 257 258 257 255 251 252 246 245 245 251 260 274 261 253 248 246 244 238 237 236 237
234 248 236 239 246 258 266 265 266 265 271 278 273 272 273 272 270 268 265 264 262 260 259 258 258 256 254 252 252 250 250 248 247 251 259 255 249 247 244 241 241 238 237
249 265 255 238 234 237 246 255 260 269 273 274 277 276 277 276 275 272 271 267 266 264 263 262 261 259 257 256 255 253 251 248 248 242 243 251 251 255 253 248 241 239 241
Wind_Speed_850mb
26 26 26 26 25 22 20 20 17 18 14 11 14 18 20 22 25 29 30 34 36 28 32 30 35 36 35 34 37 42 46 42 40 40 42 42 40 39 37 44 51 49 47
29 28 27 25 20 19 17 15 15 15 10 11 16 18 19 24 26 28 26 30 29 30 27 29 32 34 35 34 37 39 43 41 35 37 40 41 39 38 39 43 42 38 39
28 29 28 26 20 18 15 13 12 12 11 15 17 18 20 27 26 24 22 27 27 26 29 31 31 32 34 34 37 42 40 34 31 29 35 34 33 35 37 36 39 38 38
28 28 27 25 20 16 13 12 15 13 14 17 22 24 23 27 23 20 23 23 23 25 27 29 29 31 33 34 35 38 30 24 22 22 27 34 33 32 31 33 33 35 37
24 30 27 24 20 16 13 14 14 13 16 18 21 25 23 28 25 18 15 18 22 23 26 26 27 29 31 32 33 32 27 19 14 20 23 25 27 28 29 30 31 31 33
29 28 28 26 22 18 13 12 14 14 15 17 20 27 23 26 27 20 12 16 22 22 23 23 24 26 27 29 27 27 22 16 15 16 16 22 27 24 25 27 27 29 28
33 30 30 27 24 21 15 10 13 17 16 14 15 17 22 24 25 22 16 15 19 20 20 20 20 22 22 23 22 24 20 9 14 14 12 20 22 21 20 23 24 23 24
33 32 34 32 27 24 19 14 13 14 16 16 13 13 13 15 16 16 17 14 17 20 18 17 17 17 18 18 18 18 16 8 8 10 11 14 18 17 15 18 20 22 20
29 30 38 36 32 27 24 20 18 16 15 16 14 14 11 9 10 11 15 15 13 19 17 15 14 14 15 15 15 14 13 6 1 10 11 10 13 11 11 13 18 13 15
29 27 37 37 34 31 28 25 22 20 19 16 15 13 13 11 10 9 11 15 14 13 15 13 12 11 12 12 12 12 9 10 6 7 7 5 6 5 5 8 9 9 10
33 30 32 38 37 34 31 29 27 26 23 20 17 15 15 15 13 12 12 14 15 15 15 14 13 12 11 11 11 10 8 8 9 7 5 4 3 2 1 1 2 2 5
37 37 32 35 39 41 39 36 32 31 27 24 21 20 20 20 18 16 16 15 18 18 18 17 16 14 13 13 13 11 10 11 12 11 10 8 9 8 6 5 5 4 0
31 34 36 33 32 38 41 41 41 38 35 32 28 26 26 25 24 21 21 20 21 22 22 21 19 18 17 17 16 14 13 13 16 15 14 14 14 14 12 10 10 10 7
38 34 37 41 40 40 39 41 44 44 43 40 36 34 33 29 26 25 26 24 25 25 26 25 24 24 22 21 18 17 17 18 20 20 16 18 18 19 18 16 15 15 12
34 34 40 43 47 44 43 42 41 42 44 40 40 38 36 34 31 30 29 31 30 31 31 30 29 28 25 24 24 25 24 23 24 25 24 22 22 22 21 20 20 20 17
32 35 36 42 44 50 51 48 47 44 44 43 40 39 38 37 37 38 36 36 36 35 35 35 33 32 29 29 30 29 28 28 27 28 29 28 26 25 25 24 23 23 21
40 37 41 41 43 50 52 52 49 48 49 49 46 44 46 42 43 43 43 41 38 38 38 39 38 39 37 36 35 33 33 31 32 31 31 33 33 29 26 24 24 24 24
37 46 45 45 46 48 54 56 53 52 53 53 53 51 52 49 47 50 49 46 42 43 44 45 44 44 44 42 39 36 37 35 34 32 31 31 33 29 29 27 26 26 26
44 46 49 52 50 50 51 56 59 57 59 59 57 57 57 56 54 56 54 50 48 50 52 50 51 51 50 47 46 42 41 41 39 36 36 32 34 30 31 29 30 31 29
48 50 52 53 52 50 52 55 60 62 66 65 67 66 62 63 61 62 61 58 57 58 58 57 57 56 56 50 49 48 46 45 44 44 43 40 37 36 34 33 34 35 34
47 53 55 55 57 54 57 60 66 71 70 72 73 73 70 68 68 66 68 66 67 69 65 62 60 61 62 55 52 54 53 53 54 52 50 49 43 43 41 41 40 40 39
50 55 56 58 60 61 63 64 66 68 72 72 74 75 76 75 75 74 74 75 75 76 75 72 69 70 69 61 62 56 55 61 67 65 57 52 48 43 49 48 47 44 44
44 59 59 58 62 65 65 65 66 68 71 73 79 81 82 82 82 82 81 82 83 84 86 83 79 79 79 73 71 62 26 40 38 44 46 49 45 47 51 54 55 53 47
54 51 47 63 61 60 60 66 68 71 76 76 77 78 81 82 84 85 86 89 91 92 93 95 91 89 85 87 79 84 85 68 38 30 40 44 43 48 54 59 59 59 54
21 20 32 45 54 52 53 61 67 72 72 71 75 78 80 81 83 84 86 91 97 99 99 101 102 101 100 97 97 92 90 90 85 66 54 55 51 55 57 60 60 61 62
20 24 27 25 29 33 46 59 69 72 73 77 78 81 81 81 85 85 87 89 93 98 102 104 107 110 109 108 107 105 103 99 98 93 76 76 65 62 62 63 65 66 65
Wind_Direction_850mb
155 151 138 129 125 121 118 116 111 109 95 70 81 86 92 90 90 85 96 102 110 108 96 92 95 99 102 99 88 85 86 87 88 82 81 81 84 80 75 71 71 72 71
156 154 142 131 129 126 122 121 119 112 96 84 99 101 104 93 93 92 96 106 102 107 104 100 99 100 102 96 90 87 86 81 80 80 80 79 78 80 76 78 78 84 83
163 156 146 138 128 124 116 117 129 119 109 110 108 118 110 104 108 100 103 102 107 105 102 98 98 101 103 99 93 84 76 72 73 84 87 90 83 75 74 74 80 80 79
158 159 153 145 135 129 119 114 130 130 121 119 119 123 111 112 105 106 98 109 104 108 104 101 101 103 106 105 98 95 86 75 74 79 75 87 82 83 76 74 78 81 81
165 164 160 152 143 136 126 115 120 126 121 126 134 121 115 114 113 111 113 115 112 113 109 107 106 105 109 108 108 109 101 93 61 73 80 81 81 75 76 71 68 70 74
156 162 163 159 153 145 138 126 123 119 125 133 131 130 125 124 125 124 122 128 123 120 114 113 111 111 112 114 114 106 99 102 82 69 78 81 84 81 73 74 68 66 67
169 173 171 171 166 159 154 144 138 135 137 134 134 136 133 134 136 138 135 129 126 124 121 119 116 116 119 120 120 118 118 97 60 66 76 84 89 80 76 68 67 63 66
177 181 179 179 176 171 171 162 157 151 147 147 147 143 150 155 154 162 152 138 139 134 131 129 126 126 125 127 130 126 132 113 64 69 67 78 94 94 81 70 67 61 64
195 189 183 184 182 182 182 179 175 168 167 165 167 165 168 181 183 177 171 167 159 145 145 144 139 136 137 138 139 139 135 131 9 72 51 53 101 103 86 70 68 54 61
201 190 190 191 191 191 190 189 187 185 182 180 185 188 188 193 207 203 187 177 176 166 162 163 156 153 152 153 154 158 153 162 262 349 7 20 54 85 92 79 74 58 57
208 202 193 197 199 200 200 200 198 198 195 192 197 204 208 212 212 210 209 192 191 188 185 184 184 183 178 172 172 184 201 199 246 280 305 298 302 278 148 92 86 49 59
204 205 205 200 205 205 206 206 207 209 210 210 208 215 220 222 223 222 218 211 206 206 204 204 206 206 204 198 191 210 221 228 255 276 284 277 275 271 264 252 254 268 207
213 210 210 213 210 213 209 207 210 214 218 220 220 222 227 227 228 226 229 225 221 220 220 218 219 222 222 223 221 227 242 242 253 272 275 275 272 272 271 260 254 257 257
222 223 214 215 221 220 224 220 217 218 222 226 226 227 232 238 237 233 234 234 230 230 230 229 228 231 236 243 242 246 250 250 255 269 272 272 271 269 269 263 256 254 253
227 232 227 220 225 228 230 232 232 227 232 233 230 226 231 242 243 242 240 238 237 236 237 236 238 241 244 246 248 251 253 255 261 267 272 266 263 263 264 262 256 252 250
239 236 236 234 229 230 236 238 240 239 240 243 243 241 236 239 243 243 243 240 238 239 241 244 247 249 250 250 250 252 255 259 261 263 265 264 259 257 260 256 252 249 247
252 251 245 242 237 235 238 242 241 245 243 246 250 248 247 242 244 245 246 247 244 241 241 243 245 248 249 250 251 254 258 263 267 269 269 270 264 251 250 247 250 246 239
256 253 253 250 244 243 241 243 245 242 248 250 250 250 251 248 247 247 247 249 249 245 245 245 247 249 252 253 256 257 261 265 269 270 272 275 263 244 232 238 244 244 239
256 255 253 252 252 248 245 245 246 247 247 252 252 250 251 253 249 250 250 252 249 247 247 247 248 249 251 254 257 258 258 262 265 271 278 278 263 239 232 237 241 240 238
251 252 256 256 255 254 250 248 248 246 249 250 252 252 252 253 252 251 253 253 251 249 248 247 248 250 252 254 256 258 261 264 263 265 272 272 258 243 237 238 237 236 234
252 250 251 255 258 254 251 247 246 248 249 249 251 252 254 253 255 252 254 254 253 252 254 255 253 251 250 250 250 254 256 259 259 260 265 263 257 246 238 239 238 233 232
255 252 253 256 257 261 261 258 255 255 257 259 259 258 258 257 256 256 255 256 255 255 254 253 252 252 252 247 246 250 257 262 258 261 259 253 251 246 238 236 237 234 232
253 248 251 260 263 261 263 262 260 256 257 257 256 257 258 258 258 258 259 259 258 256 256 257 255 252 253 251 242 238 235 246 265 267 255 251 247 244 241 237 238 236 233
265 263 256 254 258 261 263 261 262 264 264 267 268 268 266 264 262 261 261 260 259 258 257 258 257 255 251 252 246 245 245 251 260 274 261 253 248 246 244 238 237 236 237
234 248 236 239 246 258 266 265 266 265 271 278 273 272 273 272 270 268 265 264 262 260 259 258 258 256 254 252 252 250 250 248 247 251 259 255 249 247 244 241 241 238 237
249 265 255 238 234 237 246 255 260 269 273 274 277 276 277 276 275 272 271 267 266 264 263 262 261 259 257 256 255 253 251 248 248 242 243 251 251 255 253 248 241 239 241